This is the latest recevied weather packets stored in our database for station/object KF7SOJ. If no packets are shown the sender has not sent any weather packets the latest 10 day(s).
| Time | Temp. | Humidity | Pressure | Rain* | Wind** | Luminosity | Snow |
|---|---|---|---|---|---|---|---|
| 1788207668 | 25.56° C | 22% | 932.9 hPa | 0 mm | - | 813 W/m² | - |
| 1788207366 | 25.56° C | 23% | 932.8 hPa | 0 mm | - | 818 W/m² | - |
| 1788207062 | 25° C | 23% | 932.9 hPa | 0 mm | - | 828 W/m² | - |
| 1788206758 | 25° C | 23% | 933 hPa | 0 mm | - | 833 W/m² | - |
| 1788206458 | 25° C | 23% | 933.1 hPa | 0 mm | - | 837 W/m² | - |
| 1788206153 | 24.44° C | 24% | 933.3 hPa | 0 mm | - | 839 W/m² | - |
| 1788205848 | 24.44° C | 25% | 933.3 hPa | 0 mm | - | 840 W/m² | - |
| 1788205544 | 25° C | 24% | 933.2 hPa | 0 mm | - | 844 W/m² | - |
| 1788205238 | 23.89° C | 24% | 933.3 hPa | 0 mm | - | 846 W/m² | - |
| 1788204933 | 24.44° C | 24% | 933.3 hPa | 0 mm | - | 846 W/m² | - |
| 1788204628 | 23.89° C | 24% | 933.4 hPa | 0 mm | - | 846 W/m² | - |
| 1788204323 | 23.89° C | 24% | 933.3 hPa | 0 mm | - | 849 W/m² | - |
| 1788204019 | 23.89° C | 25% | 933.5 hPa | 0 mm | - | 856 W/m² | - |
| 1788203715 | 23.89° C | 24% | 933.6 hPa | 0 mm | - | 853 W/m² | - |
| 1788203410 | 23.33° C | 29% | 933.5 hPa | 0 mm | - | 854 W/m² | - |
| 1788203113 | 23.89° C | 25% | 933.6 hPa | 0 mm | - | 853 W/m² | - |
| 1788202804 | 23.33° C | 26% | 933.4 hPa | 0 mm | - | 853 W/m² | - |
| 1788202500 | 23.33° C | 25% | 933.6 hPa | 0 mm | - | 852 W/m² | - |
| 1788202201 | 22.78° C | 26% | 933.7 hPa | 0 mm | - | 848 W/m² | - |
| 1788201895 | 23.33° C | 27% | 933.6 hPa | 0 mm | - | 846 W/m² | - |
| 1788201590 | 23.33° C | 23% | 933.8 hPa | 0 mm | - | 844 W/m² | - |
| 1788201289 | 23.33° C | 25% | 933.8 hPa | 0 mm | - | 838 W/m² | - |
| 1788200984 | 22.78° C | 27% | 933.9 hPa | 0 mm | - | 836 W/m² | - |
| 1788200679 | 23.33° C | 24% | 934 hPa | 0 mm | - | 829 W/m² | - |
| 1788200374 | 22.78° C | 23% | 934.1 hPa | 0 mm | - | 825 W/m² | - |
* Rain latest hour (hover to see other rain measurements)
** Current wind speed in m/s (hover to see current wind gust speed)